Cody, WY

2:26 PM MST on November 18, 2019 (GMT -0700)
Yellowstone Regional

Weather History for KCOD - October, 2019

Change the Weather History Date:

Monday, October 21, 2019

  Actual Average Record
Temperature  
Mean Temperature 36 °F -  
Max Temperature 45 °F 61 °F 80 °F (2003)
Min Temperature 28 °F 34 °F 7 °F (1949)
Degree Days  
Heating Degree Days 28    
Moisture  
Dew Point 24 °F    
Average Humidity 57    
Maximum Humidity 82    
Minimum Humidity 43    
Precipitation  
Precipitation 0.00 in - - ()
Sea Level Pressure  
Sea Level Pressure 30.09 in    
Wind  
Wind Speed 5 mph (NNW)    
Max Wind Speed 16 mph    
Max Gust Speed 17 mph    
Visibility 10 miles    
Events      
Averages and records for this station are not official NWS values.
T = Trace of Precipitation, MM = Missing Value Source: NWS Daily Summary

Daily Weather History Graph

Daily Weather History Graph

Search for Another Location

Airport or City:

Astronomy

Oct. 21, 2019 Rise Set
Actual Time 7:38 AM MDT 6:21 PM MDT
Civil Twilight 7:09 AM MDT 6:51 PM MDT
Nautical Twilight 6:35 AM MDT 7:25 PM MDT
Astronomical Twilight 6:01 AM MDT 7:59 PM MDT
Moon No Moon Rise 3:07 PM MDT (10/21)
Length of Visible Light 11h 42m
Length of Day
10h 43m
Waning Gibbous, 47% of the Moon is Illuminated
Oct 21
Waning Gibbous
Oct 27
New
Nov 4
First Quarter
Nov 12
Full
Nov 19
Last Quarter

Hourly Weather History & Observations

Time (MDT) Temp. Windchill Dew Point Humidity Pressure Visibility Wind Dir Wind Speed Gust Speed Precip Events Conditions
12:56 AM 37.0 °F 34.5 °F 24.1 °F 59% 29.99 in 10.0 mi WSW 3.5 mph - N/A   Overcast
1:56 AM 35.1 °F 31.0 °F 26.1 °F 70% 30.00 in 10.0 mi South 4.6 mph - N/A   Overcast
2:56 AM 37.0 °F - 23.0 °F 57% 29.99 in 10.0 mi Calm Calm - N/A   Mostly Cloudy
3:56 AM 37.0 °F 27.7 °F 19.9 °F 50% 29.97 in 10.0 mi WNW 16.1 mph - N/A   Mostly Cloudy
4:56 AM 34.0 °F 28.8 °F 19.9 °F 56% 29.98 in 10.0 mi WSW 5.8 mph - N/A   Partly Cloudy
5:56 AM 30.9 °F - 23.0 °F 72% 30.02 in 10.0 mi Calm Calm - N/A   Mostly Cloudy
6:56 AM 28.0 °F - 23.0 °F 81% 30.04 in 10.0 mi Calm Calm - N/A   Mostly Cloudy
7:56 AM 28.9 °F 23.9 °F 24.1 °F 82% 30.07 in 10.0 mi ENE 4.6 mph - N/A   Overcast
8:56 AM 32.0 °F 27.5 °F 25.0 °F 75% 30.10 in 10.0 mi NW 4.6 mph - N/A   Mostly Cloudy
9:56 AM 37.0 °F 34.5 °F 25.0 °F 62% 30.10 in 10.0 mi North 3.5 mph - N/A   Mostly Cloudy
10:56 AM 37.0 °F 31.6 °F 27.0 °F 67% 30.10 in 10.0 mi NE 6.9 mph - N/A   Overcast
11:56 AM 42.1 °F 35.7 °F 27.0 °F 55% 30.09 in 10.0 mi NNE 11.5 mph - N/A   Partly Cloudy
12:56 PM 44.1 °F 40.8 °F 27.0 °F 51% 30.07 in 10.0 mi NNE 5.8 mph - N/A   Overcast
1:56 PM 44.1 °F 39.5 °F 26.1 °F 49% 30.08 in 10.0 mi NE 8.1 mph - N/A   Overcast
2:56 PM 43.0 °F 39.5 °F 26.1 °F 51% 30.09 in 10.0 mi NNE 5.8 mph - N/A   Overcast
3:56 PM 43.0 °F 38.8 °F 26.1 °F 51% 30.11 in 10.0 mi NNE 6.9 mph - N/A   Overcast
4:56 PM 45.0 °F 41.2 °F 27.0 °F 49% 30.13 in 10.0 mi WSW 6.9 mph - N/A   Overcast
5:56 PM 42.1 °F 37.7 °F 26.1 °F 53% 30.16 in 10.0 mi East 6.9 mph - N/A   Mostly Cloudy
6:56 PM 42.1 °F 38.4 °F 23.0 °F 47% 30.19 in 10.0 mi WNW 5.8 mph - N/A   Scattered Clouds
7:56 PM 39.9 °F 36.7 °F 24.1 °F 53% 30.21 in 10.0 mi Variable 4.6 mph - N/A   Partly Cloudy
8:56 PM 42.1 °F 36.6 °F 24.1 °F 49% 30.20 in 10.0 mi WNW 9.2 mph 17.3 mph N/A   Partly Cloudy
9:56 PM 41.0 °F 36.4 °F 23.0 °F 49% 30.19 in 10.0 mi NW 6.9 mph - N/A   Partly Cloudy
10:56 PM 42.1 °F 38.4 °F 21.0 °F 43% 30.19 in 10.0 mi West 5.8 mph - N/A   Mostly Cloudy
11:56 PM 42.1 °F 39.2 °F 21.0 °F 43% 30.17 in 10.0 mi West 4.6 mph - N/A   Mostly Cloudy